This is the latest recevied weather packets stored in our database for station/object K4VEB. If no packets are shown the sender has not sent any weather packets the latest 10 day(s).
| Time | Temp. | Humidity | Pressure | Rain* | Wind** | Luminosity | Snow |
|---|---|---|---|---|---|---|---|
| 1777452061 | 17.78° C | 94% | 1015.8 hPa | 0 mm | - | 0 W/m² | - |
| 1777451757 | 18.33° C | 94% | 1015.8 hPa | 0 mm | - | 0 W/m² | - |
| 1777451453 | 18.33° C | 93% | 1015.9 hPa | 0 mm | - | 0 W/m² | - |
| 1777451149 | 18.33° C | 93% | 1015.9 hPa | 0 mm | - | 0 W/m² | - |
| 1777450845 | 18.89° C | 93% | 1015.7 hPa | 0 mm | - | 0 W/m² | - |
| 1777450540 | 18.89° C | 93% | 1015.6 hPa | 0 mm | - | 0 W/m² | - |
| 1777450237 | 18.33° C | 94% | 1015.7 hPa | 0 mm | - | 0 W/m² | - |
| 1777449933 | 18.33° C | 93% | 1015.7 hPa | 0 mm | - | 0 W/m² | - |
| 1777449630 | 18.33° C | 93% | 1015.9 hPa | 0 mm | - | 0 W/m² | - |
| 1777449326 | 18.89° C | 93% | 1016 hPa | 0 mm | - | 0 W/m² | - |
| 1777449021 | 18.89° C | 93% | 1016.2 hPa | 0 mm | - | 0 W/m² | - |
| 1777448718 | 18.89° C | 92% | 1016 hPa | 0 mm | - | 0 W/m² | - |
| 1777448415 | 18.89° C | 92% | 1016 hPa | 0 mm | - | 0 W/m² | - |
| 1777448111 | 18.89° C | 92% | 1016.2 hPa | 0 mm | - | 0 W/m² | - |
| 1777447808 | 18.89° C | 92% | 1016.2 hPa | 0 mm | - | 0 W/m² | - |
| 1777447503 | 18.89° C | 91% | 1016 hPa | 0 mm | - | 0 W/m² | - |
| 1777447199 | 18.89° C | 91% | 1016.1 hPa | 0 mm | - | 0 W/m² | - |
| 1777446898 | 18.89° C | 91% | 1015.9 hPa | 0 mm | - | 0 W/m² | - |
| 1777446594 | 18.89° C | 91% | 1016.1 hPa | 0 mm | - | 0 W/m² | - |
| 1777446290 | 18.89° C | 91% | 1016 hPa | 0 mm | - | 0 W/m² | - |
| 1777445988 | 18.89° C | 90% | 1016.1 hPa | 0 mm | - | 0 W/m² | - |
| 1777445684 | 19.44° C | 90% | 1016.3 hPa | 0 mm | - | 0 W/m² | - |
| 1777445379 | 19.44° C | 89% | 1016 hPa | 0 mm | - | 0 W/m² | - |
| 1777445076 | 20° C | 90% | 1016.2 hPa | 0 mm | - | 0 W/m² | - |
| 1777444772 | 20° C | 90% | 1016.2 hPa | 0 mm | - | 0 W/m² | - |
* Rain latest hour (hover to see other rain measurements)
** Current wind speed in m/s (hover to see current wind gust speed)